SAA223 SBGR-FAOR

Flight info

Callsign SAA223
Flight time N/A
Altitude 37000
Route UREMI UZ42 CXI UL340 ADA UL224 CIDER DCT 25S034W 26S028W 27S022W 28S016W 29S010W/N0449F390 29S004W 29S002E 29S008E DCT EGRAP/N0398F270 UQ11 OKTEL/N0449F390 UQ11 AVUSA UQ19 AVAGO AVAGO1D
Aircraft A343/H-SDE2E3FGHIJ4J5M1RWXY/LB1D1

Departure

Time N/A
Airport São Paulo/Guarulhos–Governor André Franco Montoro International Airport (SBGR)

Arrival

Time 2026-05-07 11:20
Airport O.R. Tambo International Airport (FAOR)
Time Latitude Longitude Altitude Speed Heading
2026-05-07 10:13 -27.96513 19.27850 39198 ft 532 kts 81°
2026-05-07 10:14 -27.95297 19.36110 39198 ft 532 kts 81°
2026-05-07 10:14 -27.94082 19.44330 39196 ft 532 kts 81°
2026-05-07 10:15 -27.92856 19.52588 39195 ft 533 kts 81°
2026-05-07 10:15 -27.91623 19.60860 39196 ft 533 kts 81°
2026-05-07 10:16 -27.90384 19.69132 39194 ft 533 kts 81°
2026-05-07 10:16 -27.89141 19.77399 39195 ft 533 kts 81°
2026-05-07 10:17 -27.87892 19.85671 39197 ft 534 kts 80°
2026-05-07 10:17 -27.86637 19.93953 39195 ft 534 kts 80°
2026-05-07 10:18 -27.85376 20.02231 39191 ft 534 kts 80°
2026-05-07 10:18 -27.84121 20.10440 39191 ft 534 kts 80°
2026-05-07 10:19 -27.82854 20.18695 39183 ft 535 kts 80°
2026-05-07 10:19 -27.81579 20.26966 39183 ft 535 kts 80°
2026-05-07 10:20 -27.80304 20.35205 39192 ft 535 kts 80°
2026-05-07 10:20 -27.79010 20.43534 39180 ft 535 kts 80°
2026-05-07 10:21 -27.77729 20.51746 39189 ft 534 kts 79°
2026-05-07 10:21 -27.76433 20.60017 39178 ft 534 kts 79°
2026-05-07 10:22 -27.75133 20.68282 39176 ft 534 kts 79°
2026-05-07 10:22 -27.73827 20.76552 39187 ft 534 kts 79°
2026-05-07 10:23 -27.72527 20.84753 39175 ft 534 kts 79°
2026-05-07 10:23 -27.71208 20.93016 39183 ft 534 kts 79°
2026-05-07 10:24 -27.69884 21.01276 39172 ft 534 kts 79°
2026-05-07 10:24 -27.68556 21.09529 39183 ft 534 kts 79°
2026-05-07 10:25 -27.67225 21.17777 39176 ft 534 kts 79°
2026-05-07 10:25 -27.65890 21.26011 39178 ft 534 kts 79°
2026-05-07 10:26 -27.64558 21.34201 39173 ft 534 kts 79°
2026-05-07 10:26 -27.63212 21.42438 39174 ft 534 kts 79°
2026-05-07 10:27 -27.61862 21.50672 39173 ft 534 kts 79°
2026-05-07 10:27 -27.60506 21.58912 39174 ft 534 kts 79°
2026-05-07 10:28 -27.59146 21.67145 39172 ft 534 kts 79°
2026-05-07 10:28 -27.57782 21.75368 39162 ft 534 kts 79°
2026-05-07 10:29 -27.56411 21.83601 39174 ft 534 kts 78°
2026-05-07 10:29 -27.55035 21.91835 39162 ft 534 kts 78°
2026-05-07 10:30 -27.51876 22.03773 39173 ft 532 kts 66°
2026-05-07 10:30 -27.49120 22.11507 39172 ft 531 kts 65°
2026-05-07 10:31 -27.46314 22.19165 39172 ft 531 kts 65°
2026-05-07 10:31 -27.43503 22.26852 39170 ft 530 kts 65°
2026-05-07 10:32 -27.40702 22.34540 39167 ft 530 kts 65°
2026-05-07 10:32 -27.37905 22.42220 39168 ft 530 kts 65°
2026-05-07 10:33 -27.35102 22.49903 39146 ft 531 kts 64°
2026-05-07 10:33 -27.32286 22.57603 39161 ft 533 kts 64°
2026-05-07 10:34 -27.29461 22.65307 39161 ft 533 kts 64°
2026-05-07 10:34 -27.26632 22.73010 39156 ft 533 kts 64°
2026-05-07 10:35 -27.23798 22.80712 39152 ft 533 kts 64°
2026-05-07 10:35 -27.20960 22.88410 39156 ft 533 kts 64°
2026-05-07 10:36 -27.18118 22.96100 39150 ft 533 kts 64°
2026-05-07 10:36 -27.15287 23.03749 39153 ft 533 kts 64°
2026-05-07 10:37 -27.12433 23.11442 39144 ft 533 kts 64°
2026-05-07 10:37 -27.09575 23.19133 39148 ft 533 kts 64°
2026-05-07 10:38 -27.06732 23.26767 39146 ft 533 kts 64°
2026-05-07 10:38 -27.03867 23.34446 39145 ft 533 kts 64°
2026-05-07 10:39 -27.01001 23.42111 39143 ft 532 kts 64°
2026-05-07 10:39 -26.98151 23.49718 39142 ft 532 kts 63°
2026-05-07 10:40 -26.95274 23.57384 39144 ft 532 kts 63°
2026-05-07 10:40 -26.92398 23.65031 39144 ft 532 kts 63°
2026-05-07 10:41 -26.89518 23.72676 39143 ft 532 kts 63°
2026-05-07 10:41 -26.86635 23.80314 39142 ft 532 kts 63°
2026-05-07 10:42 -26.84236 23.86657 39144 ft 532 kts 63°
2026-05-07 10:42 -26.81341 23.94298 39142 ft 533 kts 63°
2026-05-07 10:43 -26.78432 24.01959 39143 ft 534 kts 63°
2026-05-07 10:43 -26.75523 24.09610 39137 ft 534 kts 62°
2026-05-07 10:44 -26.72612 24.17249 39147 ft 534 kts 62°
2026-05-07 10:44 -26.69716 24.24836 39148 ft 534 kts 62°
2026-05-07 10:45 -26.66797 24.32467 39147 ft 534 kts 62°
2026-05-07 10:45 -26.63871 24.40102 39144 ft 533 kts 62°
2026-05-07 10:46 -26.60940 24.47734 39150 ft 533 kts 62°
2026-05-07 10:46 -26.58012 24.55345 39150 ft 533 kts 62°
2026-05-07 10:47 -26.55074 24.62969 39148 ft 533 kts 62°
2026-05-07 10:47 -26.52137 24.70575 39150 ft 533 kts 62°
2026-05-07 10:48 -26.49215 24.78126 39156 ft 533 kts 62°
2026-05-07 10:48 -26.46269 24.85728 39155 ft 533 kts 62°
2026-05-07 10:49 -26.43320 24.93320 39153 ft 533 kts 62°
2026-05-07 10:49 -26.40365 25.00917 39150 ft 533 kts 62°
2026-05-07 10:50 -26.37402 25.08518 39156 ft 533 kts 62°
2026-05-07 10:50 -26.34461 25.16064 39157 ft 534 kts 62°
2026-05-07 10:51 -26.32120 25.23969 39169 ft 538 kts 69°
2026-05-07 10:51 -26.29981 25.31965 39162 ft 538 kts 70°
2026-05-07 10:52 -26.27852 25.39978 39150 ft 539 kts 69°
2026-05-07 10:52 -26.25945 25.48038 39170 ft 544 kts 79°
2026-05-07 10:53 -26.25214 25.56462 39198 ft 546 kts 83°
2026-05-07 10:53 -26.24656 25.64904 39144 ft 545 kts 83°
2026-05-07 10:54 -26.24107 25.73274 39167 ft 545 kts 83°
2026-05-07 10:54 -26.23553 25.81686 39161 ft 545 kts 83°
2026-05-07 10:55 -26.22995 25.90101 39158 ft 545 kts 83°
2026-05-07 10:55 -26.22432 25.98513 39150 ft 545 kts 83°
2026-05-07 10:56 -26.21862 26.06943 39157 ft 545 kts 83°
2026-05-07 10:56 -26.21288 26.15368 39156 ft 545 kts 83°
2026-05-07 10:57 -26.20713 26.23742 39154 ft 545 kts 83°
2026-05-07 10:57 -26.20129 26.32165 39153 ft 545 kts 83°
2026-05-07 10:58 -26.19540 26.40593 39106 ft 543 kts 83°
2026-05-07 10:58 -26.19245 26.44796 38525 ft 544 kts 83°
2026-05-07 10:58 -26.18946 26.49017 37657 ft 551 kts 83°
2026-05-07 10:59 -26.18641 26.53301 36837 ft 556 kts 83°
2026-05-07 10:59 -26.18338 26.57557 36053 ft 561 kts 83°
2026-05-07 10:59 -26.18027 26.61900 35308 ft 565 kts 82°
2026-05-07 10:59 -26.17712 26.66280 34569 ft 568 kts 82°
2026-05-07 11:00 -26.17394 26.70690 33779 ft 572 kts 82°
2026-05-07 11:00 -26.17074 26.75113 33025 ft 573 kts 82°
2026-05-07 11:00 -26.16753 26.79540 32320 ft 573 kts 82°
2026-05-07 11:00 -26.16430 26.83963 31616 ft 573 kts 82°
2026-05-07 11:01 -26.16106 26.88382 30951 ft 571 kts 82°
2026-05-07 11:01 -26.15786 26.92729 30350 ft 568 kts 82°
2026-05-07 11:01 -26.15464 26.97096 29713 ft 565 kts 82°
2026-05-07 11:01 -26.15142 27.01438 29084 ft 561 kts 82°
2026-05-07 11:02 -26.14820 27.05760 28501 ft 555 kts 82°
2026-05-07 11:02 -26.14501 27.10024 27949 ft 550 kts 82°
2026-05-07 11:02 -26.14184 27.14242 27405 ft 544 kts 82°
2026-05-07 11:02 -26.13868 27.18420 26872 ft 539 kts 82°
2026-05-07 11:03 -26.13554 27.22565 26298 ft 534 kts 82°
2026-05-07 11:03 -26.13242 27.26660 25794 ft 529 kts 82°
2026-05-07 11:03 -26.12932 27.30728 25288 ft 523 kts 83°
2026-05-07 11:03 -26.12624 27.34741 24794 ft 518 kts 83°
2026-05-07 11:04 -26.12317 27.38724 24303 ft 513 kts 83°
2026-05-07 11:04 -26.12017 27.42607 23802 ft 507 kts 83°
2026-05-07 11:04 -26.11717 27.46489 23184 ft 500 kts 83°
2026-05-07 11:04 -26.11420 27.50310 21997 ft 488 kts 83°
2026-05-07 11:05 -26.11131 27.54020 20449 ft 480 kts 83°
2026-05-07 11:05 -26.10845 27.57676 19049 ft 469 kts 84°
2026-05-07 11:05 -26.10564 27.61249 17605 ft 458 kts 84°
2026-05-07 11:05 -26.10290 27.64730 16146 ft 446 kts 84°
2026-05-07 11:06 -26.10022 27.68119 14792 ft 434 kts 84°
2026-05-07 11:06 -26.09760 27.71417 13532 ft 421 kts 84°
2026-05-07 11:06 -26.09509 27.74562 12907 ft 393 kts 85°
2026-05-07 11:06 -26.09273 27.77525 12521 ft 378 kts 85°
2026-05-07 11:07 -26.09040 27.80436 12037 ft 378 kts 85°
2026-05-07 11:07 -26.08807 27.83341 11542 ft 377 kts 85°
2026-05-07 11:07 -26.08573 27.86246 11138 ft 374 kts 85°
2026-05-07 11:07 -26.08344 27.89081 11004 ft 362 kts 85°
2026-05-07 11:08 -26.08125 27.91794 10882 ft 352 kts 86°
2026-05-07 11:08 -26.07908 27.94472 10754 ft 342 kts 86°
2026-05-07 11:08 -26.07697 27.97081 10611 ft 333 kts 86°
2026-05-07 11:08 -26.07490 27.99617 10475 ft 325 kts 86°
2026-05-07 11:09 -26.07289 28.02094 10354 ft 318 kts 86°
2026-05-07 11:09 -26.07129 28.04513 10228 ft 309 kts 93°
2026-05-07 11:09 -26.07014 28.06861 10066 ft 304 kts 75°
2026-05-07 11:09 -26.05991 28.08866 9920 ft 295 kts 41°
2026-05-07 11:10 -26.04278 28.09944 9726 ft 278 kts
2026-05-07 11:10 -26.02430 28.10004 9573 ft 263 kts 350°
2026-05-07 11:10 -26.00602 28.09952 9394 ft 263 kts 356°
2026-05-07 11:10 -25.98779 28.10110 9187 ft 263 kts
2026-05-07 11:11 -25.96969 28.10434 8983 ft 262 kts
2026-05-07 11:11 -25.95184 28.10852 8759 ft 261 kts
2026-05-07 11:11 -25.93426 28.11330 8615 ft 261 kts 11°
2026-05-07 11:11 -25.91672 28.11841 8497 ft 260 kts 11°
2026-05-07 11:12 -25.89923 28.12366 8401 ft 260 kts 12°
2026-05-07 11:12 -25.88181 28.12899 8368 ft 260 kts 12°
2026-05-07 11:12 -25.86437 28.13437 8258 ft 259 kts 12°
2026-05-07 11:12 -25.84734 28.14139 8252 ft 274 kts 26°
2026-05-07 11:13 -25.83217 28.15600 8261 ft 301 kts 56°
2026-05-07 11:13 -25.82523 28.17748 8268 ft 302 kts 88°
2026-05-07 11:13 -25.82878 28.19986 8194 ft 294 kts 119°
2026-05-07 11:13 -25.83966 28.21853 8108 ft 282 kts 134°
2026-05-07 11:14 -25.85269 28.23427 8032 ft 272 kts 139°
2026-05-07 11:14 -25.86576 28.24893 8010 ft 261 kts 139°
2026-05-07 11:14 -25.87793 28.26322 8014 ft 250 kts 137°
2026-05-07 11:14 -25.88919 28.27758 8016 ft 245 kts 135°
2026-05-07 11:15 -25.90001 28.29228 8013 ft 245 kts 134°
2026-05-07 11:15 -25.91362 28.30240 8010 ft 232 kts 171°
2026-05-07 11:15 -25.92894 28.30255 8055 ft 214 kts 196°
2026-05-07 11:15 -25.94265 28.29811 8010 ft 196 kts 202°
2026-05-07 11:16 -25.95497 28.29372 7987 ft 177 kts 201°
2026-05-07 11:16 -25.96701 28.28988 8018 ft 184 kts 200°
2026-05-07 11:16 -25.97929 28.28610 8010 ft 186 kts 199°
2026-05-07 11:16 -25.99148 28.28238 7979 ft 174 kts 200°
2026-05-07 11:17 -26.00282 28.27889 7801 ft 164 kts 201°
2026-05-07 11:17 -26.01337 28.27559 7588 ft 149 kts 200°
2026-05-07 11:17 -26.02304 28.27258 7398 ft 142 kts 200°
2026-05-07 11:17 -26.03252 28.26964 7212 ft 142 kts 201°
2026-05-07 11:18 -26.04198 28.26670 7054 ft 143 kts 201°
2026-05-07 11:18 -26.05153 28.26373 6856 ft 142 kts 198°
2026-05-07 11:18 -26.06101 28.26080 6679 ft 141 kts 200°
2026-05-07 11:18 -26.07050 28.25785 6467 ft 142 kts 199°
2026-05-07 11:19 -26.07992 28.25492 6260 ft 139 kts 199°
2026-05-07 11:19 -26.08924 28.25201 6059 ft 140 kts 200°
2026-05-07 11:19 -26.09868 28.24916 5849 ft 141 kts 200°
2026-05-07 11:19 -26.10790 28.24629 5627 ft 133 kts 200°
2026-05-07 11:20 -26.11646 28.24363 5533 ft 119 kts 196°
2026-05-07 11:20 -26.12268 28.24169 5538 ft 67 kts 196°
2026-05-07 11:20 -26.12578 28.24075 5549 ft 37 kts 196°
2026-05-07 11:20 -26.12799 28.24006 5551 ft 29 kts 195°
2026-05-07 11:21 -26.12977 28.23949 5551 ft 26 kts 196°
2026-05-07 11:21 -26.13138 28.23897 5551 ft 20 kts 195°
2026-05-07 11:21 -26.13211 28.23843 5553 ft 4 kts 266°
2026-05-07 11:21 -26.13194 28.23815 5555 ft 8 kts 308°
2026-05-07 11:22 -26.13147 28.23742 5550 ft 13 kts 295°
2026-05-07 11:22 -26.13131 28.23642 5553 ft 13 kts 276°
2026-05-07 11:22 -26.13122 28.23548 5554 ft 12 kts 276°
2026-05-07 11:22 -26.13112 28.23462 5551 ft 11 kts 278°
2026-05-07 11:23 -26.13102 28.23386 5551 ft 9 kts 277°
2026-05-07 11:23 -26.13097 28.23347 5554 ft 0 kts 277°
2026-05-07 11:23 -26.13096 28.23334 5555 ft 2 kts 276°
2026-05-07 11:23 -26.13096 28.23333 5555 ft 0 kts 277°
2026-05-07 11:24 -26.13096 28.23332 5555 ft 0 kts 277°